Vertical_Velocity
-1 -3 -3 2 -2 -3 1 -1 -3 -1 -2 -3 -2 0 -2 -2 -6 -5 -2 -3 -6 -3 -2 0 -5 1 -1 -4 -3 0 -1 4 8 9 -5 -3 -5 -2 -5 4 -3 -6 17 7 0 1 -1
-0 0 -4 -0 1 -3 -0 1 -2 0 -1 -2 -2 -1 2 1 -5 -3 -2 -3 -4 -4 -1 -3 -2 2 2 -0 2 5 0 4 7 -1 0 -2 3 2 -3 1 -4 5 5 -6 3 13 9
1 -2 -1 -2 -1 -0 -1 1 -4 -3 -1 -3 -1 1 1 -3 -3 -1 -2 -3 -3 -5 -2 -2 -2 -2 1 -2 11 4 6 -8 8 2 -3 2 6 -2 -2 7 3 6 -2 -0 10 1 -1
-1 -1 -0 -2 -2 -1 -1 2 -0 -2 3 -0 -2 -1 -0 0 -1 -4 -3 -0 -2 -3 -2 -2 -0 -2 -2 -1 9 9 -3 1 6 -3 4 2 -1 4 5 -3 -3 -3 5 4 -5 -2 -3
-0 -0 -1 -0 -3 -3 0 -2 2 -5 7 2 0 -1 1 -1 -4 0 -4 -1 0 -0 -2 -2 -2 -4 1 2 4 6 3 -1 4 0 -2 1 -1 4 -3 1 -5 -12 -13 -8 -5 6 1
-1 1 -2 -2 -1 -1 0 -4 -2 3 -1 2 -2 -1 -1 -2 0 1 2 -2 -1 2 1 2 -1 -2 0 -2 -3 -1 3 -1 13 -1 3 14 -2 -5 -4 -18 -18 6 -4 -2 -2 4 -2
-2 0 -1 -2 -1 -2 -0 0 1 3 -0 2 1 -1 -1 -2 -2 0 2 0 -3 -3 -0 0 -1 -2 2 8 14 5 4 -1 8 3 -1 6 7 -8 9 8 -3 7 7 11 2 10 -5
0 -3 -3 -2 -2 -3 -3 -0 -3 -2 1 4 0 -1 -1 -2 1 -1 -2 1 -0 4 -1 0 -1 -3 -3 1 -3 2 7 -3 2 -2 -0 5 -10 10 2 2 2 3 1 -4 0 2 0
-1 0 -1 -2 -3 -1 -2 -5 -0 1 3 2 4 -3 -1 0 -1 -0 -1 -2 -0 0 0 0 2 -3 -1 -1 -2 2 4 4 8 11 6 -5 6 9 2 0 0 1 2 6 4 6 1
-1 -0 0 -3 -2 -1 -4 -3 1 -0 -2 0 0 -0 2 -1 0 -1 1 -2 -1 0 -3 4 3 1 -4 -1 -2 -3 5 -6 6 8 5 18 3 1 2 -3 1 4 4 -1 -3 -4 -7
-1 1 -0 -3 -3 -2 -3 -2 -2 -1 -0 0 6 -2 1 -0 1 -2 -2 -2 -2 -1 -4 3 3 0 1 -3 2 -5 0 1 9 11 14 -2 -1 -1 -4 5 1 2 -2 -1 0 -4 0
1 1 -1 -2 -2 1 -5 -1 -2 -0 1 -2 2 1 -1 0 3 2 3 -4 1 -8 -3 1 4 0 -1 -3 -4 -2 1 7 5 7 4 6 2 -7 2 4 2 0 -1 -3 -2 0 -8
1 2 -0 -3 -2 -1 -6 -2 -1 0 -1 -2 -1 2 -1 3 -0 1 -3 -2 1 -5 -2 2 7 1 -3 1 7 -3 -7 -4 -3 -4 10 4 -4 6 2 -2 -4 -4 -2 -1 -3 -8 -7
-1 1 -1 -3 -2 -3 -3 -4 -3 0 -2 -0 0 2 -0 -2 5 2 2 0 0 -1 -3 -3 4 -0 -0 3 -13 0 1 -1 2 8 6 1 -4 -5 -2 0 8 2 1 3 1 -2 5
-0 0 -1 -3 -3 -2 -2 -4 -4 0 -0 1 0 2 -1 -1 4 -0 5 0 -2 0 -3 -6 -6 -0 5 -4 1 -3 -6 -4 0 3 -5 -7 -8 1 2 1 -2 -0 -6 -2 -1 -2 -3
1 -2 0 -3 -3 -3 -2 -3 -3 0 -3 -2 2 1 -2 -4 3 4 -2 1 -3 2 3 -0 -1 -3 -1 2 1 -0 1 3 -0 -2 -2 1 -0 1 2 1 -5 -2 5 -6 -3 -3 -5
1 -1 -1 -0 -4 -3 -3 -2 -2 -2 -3 -4 -1 0 0 -4 2 0 -1 5 3 -1 -1 0 -2 0 -1 -1 -3 1 -2 -3 -3 -4 -1 -3 3 1 2 -6 3 3 1 -4 -0 -10 -4
-0 -1 -2 -1 -5 -2 -2 -2 -2 -5 -2 -4 -0 6 10 -2 -4 1 -1 -2 6 -4 -1 -2 2 -1 0 -1 -1 -3 -2 0 1 -1 1 -1 -1 -4 2 4 -4 -2 -3 -2 -6 6 0
2 -2 -0 -2 -2 -4 0 -3 -3 -4 -2 -5 -2 -2 4 1 -1 2 1 -0 3 0 2 0 -2 4 0 -2 -1 3 -3 -2 1 3 -3 -0 -2 -3 -4 -3 -2 -4 6 5 3 -1 -8
0 -2 -1 -3 -3 -2 0 -3 -3 -5 -2 -6 -5 -7 1 1 -3 0 0 -1 1 1 0 3 -1 0 3 1 -3 2 3 3 1 -2 3 -3 7 2 1 1 -2 -3 4 2 -1 -11 12
3 -2 -1 -1 -5 -0 0 -1 -4 -1 -2 -1 -3 -6 -2 0 -6 -3 -3 4 -5 2 -0 -1 3 -3 2 2 0 -1 -0 2 -1 -4 -1 -1 -2 -0 -3 -3 -3 -1 3 -1 -6 15 -30
2 -1 -2 -2 -4 1 -1 -0 -1 -0 -1 -4 -1 -3 -1 2 -2 -3 2 -2 2 1 3 2 0 -2 -1 -0 2 1 1 -1 -0 1 3 2 3 1 2 3 1 2 2 2 1 2 -2
1 -1 -2 -2 -3 0 -0 -2 -0 -1 -3 -3 -5 -5 1 2 1 0 6 0 1 -2 -4 -0 5 3 -0 -0 1 1 1 2 1 0 -0 1 1 1 3 -1 -1 8 0 -1 -3 2 -3
2 -0 -1 -4 0 -1 -2 -2 -2 -2 -3 -2 -5 -9 4 -2 0 -4 -2 4 3 4 2 0 3 2 -0 -1 0 1 2 0 0 0 0 0 0 -0 0 -3 0 -1 -0 -1 2 2 -3
0 -0 -1 -2 -2 -2 0 -2 -1 -3 -2 -2 -2 -5 -4 -1 0 -4 -2 -6 -5 -9 -4 -2 -2 -3 -1 -1 -3 -1 1 1 -2 -1 1 1 -1 -1 -2 -0 5 -2 -2 -3 0 1 -6
-2 -1 -2 -0 -2 -2 -0 -1 -1 -2 -4 -3 -2 -3 -6 2 -4 -3 -6 -2 -1 -0 6 -6 -1 -1 1 1 0 -3 -3 1 1 0 -2 -1 1 -1 1 -0 2 4 1 1 -0 -3 -1
-4 -2 -1 -2 -0 -1 -2 -1 -0 -1 -2 -3 -2 -5 -10 -3 -2 -3 -1 1 2 7 2 2 -1 1 1 -0 -1 -0 -0 -1 1 1 1 -1 -1 1 -1 -0 8 -2 2 0 -0 1 1
-4 1 0 -1 -2 0 0 -2 -2 -1 -5 -3 -3 -6 -10 -6 -4 -3 -3 -1 -1 -8 -14 -2 0 3 3 1 2 -1 -0 -0 0 1 1 1 -0 -2 0 1 2 1 0 0 -0 -1 1
-2 -1 2 -2 -6 -4 -2 -1 -2 -2 -3 -4 -5 -7 -9 -7 -8 -4 -5 -6 -2 -2 -3 7 3 -11 -3 1 4 3 0 0 -2 0 -2 -1 -0 0 -1 -0 -2 -2 0 -2 -4 -0 -1
Height
5794 5789 5782 5774 5763 5752 5739 5727 5713 5699 5683 5669 5655 5646 5638 5627 5618 5606 5593 5579 5565 5554 5551 5551 5552 5550 5552 5556 5564 5579 5590 5601 5617 5629 5643 5654 5666 5676 5685 5694 5702 5710 5719 5727 5735 5743 5748
5791 5786 5779 5771 5761 5749 5737 5725 5711 5697 5681 5668 5653 5644 5637 5627 5617 5607 5593 5581 5568 5557 5553 5552 5551 5549 5550 5553 5558 5572 5586 5600 5614 5625 5638 5650 5662 5672 5680 5689 5697 5707 5712 5720 5729 5737 5744
5788 5783 5776 5768 5758 5747 5736 5723 5709 5695 5681 5666 5651 5641 5635 5627 5617 5608 5595 5584 5571 5561 5555 5553 5551 5549 5551 5554 5557 5568 5583 5594 5609 5622 5635 5646 5658 5667 5676 5684 5692 5700 5707 5715 5720 5729 5737
5786 5780 5773 5765 5757 5746 5733 5721 5707 5692 5679 5665 5651 5639 5633 5627 5619 5609 5597 5586 5575 5563 5557 5554 5552 5550 5552 5556 5561 5569 5579 5595 5609 5619 5633 5643 5653 5663 5671 5680 5687 5694 5702 5707 5719 5726 5731
5783 5776 5770 5763 5753 5743 5732 5719 5707 5692 5679 5664 5650 5639 5632 5626 5620 5610 5600 5589 5579 5568 5559 5555 5553 5552 5553 5557 5563 5568 5581 5596 5608 5618 5632 5643 5650 5658 5667 5675 5682 5689 5697 5705 5714 5721 5726
5780 5773 5767 5761 5751 5742 5731 5719 5706 5692 5677 5663 5651 5639 5631 5626 5620 5612 5602 5592 5583 5573 5564 5557 5554 5556 5554 5557 5561 5570 5581 5595 5606 5615 5630 5639 5647 5656 5664 5672 5682 5687 5697 5706 5715 5722 5727
5776 5770 5764 5757 5749 5740 5730 5718 5705 5691 5677 5664 5651 5639 5630 5625 5620 5614 5605 5596 5587 5578 5567 5560 5556 5555 5557 5560 5564 5571 5581 5595 5604 5614 5626 5637 5645 5655 5666 5672 5678 5686 5693 5702 5709 5714 5718
5772 5768 5761 5754 5747 5737 5729 5718 5705 5692 5678 5665 5651 5638 5630 5624 5620 5616 5609 5600 5591 5583 5571 5563 5558 5558 5559 5561 5566 5573 5583 5594 5604 5614 5626 5636 5643 5653 5661 5670 5676 5682 5689 5697 5702 5707 5711
5768 5764 5758 5752 5745 5736 5728 5717 5704 5692 5679 5665 5651 5638 5628 5623 5619 5616 5611 5603 5594 5585 5576 5568 5562 5561 5563 5565 5569 5576 5585 5596 5606 5617 5627 5635 5645 5650 5659 5667 5674 5681 5687 5693 5700 5704 5707
5765 5760 5755 5749 5742 5734 5726 5716 5705 5693 5680 5665 5649 5638 5628 5623 5620 5616 5612 5606 5597 5589 5581 5575 5567 5566 5566 5568 5571 5577 5586 5598 5604 5617 5627 5635 5641 5648 5656 5665 5672 5679 5685 5690 5694 5699 5706
5761 5757 5753 5746 5739 5732 5724 5716 5705 5694 5680 5665 5649 5637 5627 5622 5619 5617 5615 5608 5602 5594 5587 5581 5573 5570 5570 5572 5575 5580 5590 5599 5611 5619 5628 5634 5642 5648 5655 5663 5671 5677 5682 5687 5692 5698 5703
5756 5753 5749 5742 5735 5728 5723 5714 5704 5693 5679 5665 5650 5638 5628 5623 5618 5616 5614 5611 5607 5600 5593 5587 5580 5577 5576 5576 5580 5585 5594 5602 5609 5618 5627 5635 5642 5647 5655 5663 5671 5675 5680 5684 5689 5694 5699
5752 5748 5745 5739 5732 5725 5720 5712 5703 5692 5679 5665 5651 5637 5627 5621 5619 5616 5615 5613 5610 5603 5599 5594 5588 5584 5585 5585 5590 5595 5600 5608 5615 5623 5630 5635 5642 5648 5655 5662 5669 5674 5678 5682 5688 5690 5694
5748 5745 5741 5735 5729 5722 5717 5710 5702 5691 5679 5667 5652 5639 5628 5622 5617 5615 5615 5615 5612 5608 5602 5599 5596 5592 5593 5595 5599 5601 5606 5612 5618 5625 5631 5636 5642 5648 5654 5661 5667 5671 5677 5681 5684 5687 5691
5744 5740 5737 5732 5725 5720 5714 5708 5700 5691 5680 5667 5652 5640 5628 5621 5616 5615 5616 5615 5613 5611 5607 5603 5601 5599 5599 5602 5606 5609 5612 5617 5623 5628 5634 5639 5645 5650 5653 5660 5667 5671 5675 5679 5683 5686 5691
5740 5737 5733 5728 5722 5717 5711 5705 5699 5689 5679 5667 5653 5639 5628 5620 5615 5613 5614 5615 5614 5613 5612 5608 5606 5604 5603 5606 5610 5613 5618 5621 5627 5632 5637 5641 5647 5651 5655 5660 5665 5670 5675 5677 5680 5684 5687
5735 5732 5729 5724 5719 5714 5708 5702 5696 5688 5679 5667 5654 5640 5628 5619 5612 5612 5612 5613 5614 5613 5614 5613 5611 5610 5608 5610 5613 5616 5620 5626 5631 5635 5639 5643 5649 5653 5656 5659 5663 5667 5668 5671 5676 5678 5680
5730 5727 5725 5721 5715 5710 5704 5698 5693 5686 5678 5667 5656 5642 5628 5615 5611 5608 5610 5611 5612 5613 5614 5615 5614 5614 5614 5614 5617 5620 5623 5628 5632 5637 5640 5643 5646 5649 5654 5658 5660 5662 5664 5667 5669 5674 5677
5724 5722 5720 5717 5712 5706 5701 5695 5690 5684 5676 5666 5656 5643 5626 5614 5609 5606 5607 5609 5610 5612 5613 5615 5615 5616 5617 5619 5621 5623 5625 5629 5633 5636 5638 5642 5644 5648 5650 5654 5656 5658 5661 5663 5666 5669 5671
5719 5718 5715 5712 5708 5702 5697 5692 5687 5681 5673 5665 5655 5641 5624 5613 5606 5603 5604 5606 5608 5610 5612 5614 5615 5616 5618 5620 5622 5624 5627 5629 5631 5634 5637 5640 5643 5645 5648 5650 5652 5653 5656 5658 5659 5659 5663
5713 5712 5709 5706 5703 5699 5694 5689 5684 5678 5670 5664 5654 5641 5623 5613 5604 5600 5600 5602 5604 5607 5610 5612 5614 5616 5617 5619 5620 5623 5625 5628 5630 5632 5634 5637 5639 5641 5642 5645 5647 5648 5648 5650 5650 5655 5653
5706 5706 5704 5702 5699 5696 5691 5686 5681 5676 5668 5661 5653 5641 5623 5610 5602 5598 5597 5599 5603 5605 5607 5610 5612 5615 5616 5617 5620 5621 5622 5624 5627 5629 5631 5633 5635 5636 5638 5640 5641 5642 5645 5646 5647 5650 5647
5699 5700 5698 5696 5694 5692 5688 5683 5678 5673 5667 5660 5652 5640 5623 5610 5602 5598 5595 5596 5599 5601 5604 5607 5610 5613 5615 5616 5618 5620 5621 5622 5624 5626 5627 5629 5631 5633 5635 5636 5636 5639 5641 5641 5642 5644 5644
5693 5694 5692 5691 5690 5687 5684 5680 5675 5670 5664 5657 5650 5641 5626 5613 5602 5598 5594 5594 5596 5599 5601 5604 5607 5610 5614 5615 5617 5618 5619 5619 5621 5622 5624 5625 5627 5628 5631 5631 5632 5635 5635 5635 5636 5638 5638
5686 5687 5686 5685 5684 5683 5680 5676 5672 5667 5662 5656 5650 5641 5627 5614 5603 5597 5593 5593 5593 5596 5599 5602 5605 5608 5611 5614 5615 5616 5617 5617 5618 5619 5620 5622 5623 5625 5626 5627 5630 5630 5630 5630 5631 5633 5631
5678 5679 5680 5680 5679 5678 5676 5672 5668 5663 5660 5654 5648 5641 5628 5615 5603 5595 5592 5592 5590 5593 5597 5600 5603 5605 5608 5610 5612 5614 5615 5615 5616 5616 5617 5619 5620 5622 5622 5623 5625 5626 5625 5625 5626 5627 5626
5670 5672 5674 5674 5673 5672 5670 5667 5664 5661 5657 5651 5646 5639 5630 5615 5603 5596 5592 5590 5589 5590 5593 5596 5600 5603 5605 5608 5609 5611 5612 5613 5613 5613 5615 5616 5617 5618 5618 5618 5621 5619 5621 5621 5621 5624 5621
5663 5665 5667 5667 5667 5666 5664 5662 5660 5656 5653 5649 5644 5638 5629 5615 5604 5595 5592 5588 5586 5588 5592 5594 5596 5599 5601 5604 5607 5607 5609 5610 5611 5612 5612 5613 5613 5614 5614 5614 5616 5615 5616 5617 5616 5615 5616
5654 5657 5659 5659 5660 5660 5658 5656 5654 5651 5648 5644 5640 5634 5626 5616 5604 5596 5591 5587 5585 5586 5586 5587 5591 5594 5597 5600 5603 5604 5605 5607 5607 5608 5608 5609 5610 5610 5611 5610 5609 5609 5609 5609 5609 5611 5611